Weather History for Bridgeport, CT

Change the Weather History Date:

Sunday, July 14, 2013

  Actual Average Record
Temperature  
Mean Temperature 81 °F 74 °F  
Max Temperature 90 °F 82 °F 93 °F (1974)
Min Temperature 72 °F 67 °F 57 °F (2009)
Degree Days  
Heating Degree Days 0 0  
Month to date heating degree days 0 0  
Since 1 June heating degree days 18 32  
Since 1 July heating degree days 0 0  
Cooling Degree Days 16 9  
Month to date cooling degree days 199 122  
Year to date cooling degree days 412 289  
Since 1 June cooling degree days 374 265  
Growing Degree Days 31 (Base 50)    
Moisture  
Dew Point 73 °F    
Average Humidity 78    
Maximum Humidity 100    
Minimum Humidity 56    
Precipitation  
Precipitation T in 0.11 in 1.69 in (1975)
Month to date precipitation 0.64 1.39  
Year to date precipitation 23.72 22.87  
Snow  
Snow 0.00 in 0.00 in 0.00 in (2002)
Month to date snowfall 0.0 0.0  
Since 1 July snowfall 0.0 0.0  
Snow Depth 0.00 in    
Sea Level Pressure  
Sea Level Pressure 30.28 in    
Wind  
Wind Speed 7 mph (SSW)    
Max Wind Speed 15 mph    
Max Gust Speed 18 mph    
Visibility 6 miles    
Events Fog    
T = Trace of Precipitation, MM = Missing Value Source: NWS Daily Summary

Daily Weather History Graph

Daily Weather History Graph

Search for Another Location

Airport:

Trip Planner

Search our weather history database for the weather conditions in past years. The results will help you decide how hot, cold, wet, or windy it might be!

Date:

Astronomy

Jul. 14, 2013 Rise Set
Actual Time 5:32 AM EDT 8:24 PM EDT
Civil Twilight 4:59 AM EDT 8:56 PM EDT
Nautical Twilight 4:18 AM EDT 9:38 PM EDT
Astronomical Twilight 3:30 AM EDT 10:25 PM EDT
Moon 11:50 AM EDT (7/14) 11:30 PM EDT (7/14)
Length of Visible Light 15h 57m
Length of Day
14h 52m
Waxing Crescent, 35% of the Moon is Illuminated
Jul 14
Waxing Crescent
Jul 15
First Quarter
Jul 22
Full
Jul 29
Last Quarter
Aug 6
New

Hourly Weather History & Observations

Time (EDT) Temp. Heat Index Dew Point Humidity Pressure Visibility Wind Dir Wind Speed Gust Speed Precip Events Conditions
12:33 AM 73.4 °F - 73.4 °F 100% 30.29 in 5.0 mi NE 5.8 mph - N/A   Overcast
12:52 AM 73.9 °F - 73.0 °F 97% 30.30 in 2.0 mi NE 5.8 mph - N/A   Overcast
1:01 AM 73.4 °F - 71.6 °F 94% 30.30 in 1.5 mi NE 5.8 mph - N/A   Overcast
1:18 AM 73.4 °F - 71.6 °F 94% 30.30 in 2.0 mi ENE 6.9 mph - N/A   Overcast
1:27 AM 73.4 °F - 71.6 °F 94% 30.30 in 1.8 mi East 4.6 mph - N/A   Overcast
1:38 AM 73.4 °F - 73.4 °F 100% 30.30 in 2.5 mi East 3.5 mph - N/A   Overcast
1:52 AM 73.0 °F - 73.0 °F 100% 30.30 in 2.5 mi East 4.6 mph - N/A   Overcast
2:14 AM 73.4 °F - 73.4 °F 100% 30.30 in 1.0 mi East 3.5 mph - N/A   Overcast
2:18 AM 73.4 °F - 73.4 °F 100% 30.30 in 0.8 mi ENE 3.5 mph - N/A   Mist
2:27 AM 73.4 °F - 73.4 °F 100% 30.30 in 0.5 mi NE 3.5 mph - N/A Fog Fog
2:52 AM 73.0 °F - 73.0 °F 100% 30.30 in 0.2 mi ENE 3.5 mph - N/A Fog Fog
3:52 AM 72.0 °F - 72.0 °F 100% 30.30 in 0.2 mi NE 4.6 mph - 0.00 in Fog Fog
4:52 AM 73.0 °F - 73.0 °F 100% 30.30 in 0.5 mi Calm Calm - N/A Fog Fog
5:52 AM 73.0 °F - 72.0 °F 96% 30.30 in 0.2 mi SW 4.6 mph - N/A Fog Fog
6:47 AM 73.4 °F - 73.4 °F 100% 30.30 in 1.0 mi West 5.8 mph - N/A   Mist
6:52 AM 73.9 °F - 73.9 °F 100% 30.30 in 4.0 mi West 4.6 mph - N/A   Mostly Cloudy
7:05 AM 75.2 °F - 75.2 °F 100% 30.30 in 6.0 mi West 5.8 mph - N/A   Scattered Clouds
7:52 AM 77.0 °F - 73.0 °F 88% 30.32 in 8.0 mi West 6.9 mph - N/A   Clear
8:52 AM 78.1 °F - 73.0 °F 84% 30.32 in 8.0 mi SW 8.1 mph - N/A   Clear
9:52 AM 82.9 °F 89.4 °F 73.9 °F 74% 30.31 in 10.0 mi Variable 5.8 mph - N/A   Clear
10:49 AM 82.4 °F 88.2 °F 73.4 °F 74% 30.31 in 10.0 mi Variable 3.5 mph - N/A   Mostly Cloudy
10:52 AM 82.0 °F 87.4 °F 73.0 °F 74% 30.32 in 10.0 mi SSW 8.1 mph - N/A   Mostly Cloudy
11:13 AM 80.6 °F 85.4 °F 73.4 °F 79% 30.31 in 10.0 mi SW 9.2 mph - N/A   Mostly Cloudy
11:52 AM 84.0 °F 91.2 °F 73.9 °F 72% 30.30 in 10.0 mi SSW 9.2 mph - N/A   Clear
12:52 PM 84.0 °F 90.2 °F 73.0 °F 69% 30.29 in 10.0 mi SSW 11.5 mph - N/A   Mostly Cloudy
1:52 PM 87.1 °F 94.5 °F 73.0 °F 63% 30.28 in 10.0 mi SSW 12.7 mph - N/A   Scattered Clouds
2:52 PM 88.0 °F 95.6 °F 73.0 °F 61% 30.27 in 10.0 mi SSW 15.0 mph - N/A   Clear
3:52 PM 89.1 °F 96.0 °F 72.0 °F 57% 30.25 in 10.0 mi SSW 12.7 mph - N/A   Clear
4:52 PM 89.1 °F 96.0 °F 72.0 °F 57% 30.24 in 10.0 mi SW 11.5 mph - N/A   Clear
5:52 PM 87.1 °F 92.8 °F 71.1 °F 59% 30.22 in 10.0 mi SW 9.2 mph - N/A   Clear
6:52 PM 84.0 °F 89.6 °F 72.0 °F 67% 30.22 in 10.0 mi SW 5.8 mph - N/A   Partly Cloudy
7:52 PM 81.0 °F 85.8 °F 73.0 °F 77% 30.22 in 10.0 mi SW 5.8 mph - N/A   Scattered Clouds
8:52 PM 80.1 °F 84.2 °F 73.0 °F 79% 30.23 in 10.0 mi SW 10.4 mph - N/A   Partly Cloudy
9:52 PM 79.0 °F - 73.0 °F 82% 30.24 in 10.0 mi West 3.5 mph - N/A   Mostly Cloudy
10:52 PM 79.0 °F - 73.0 °F 82% 30.23 in 10.0 mi SW 4.6 mph - N/A   Clear
11:52 PM 77.0 °F - 73.0 °F 88% 30.23 in 10.0 mi SW 3.5 mph - N/A   Clear